GW5184 Weather Reports


Display with metric or nautical units.
time (UTC)temp
F
wind
direction
speed
MPH
gust
MPH
rain 1hr
in
rain 24hr
in
rain mn
in
humidity
%
barometer
mb
20260507155651 80 192 0.0 0.0 0.00 0.00 0.00 89 1008.2
20260507155148 80 192 0.0 0.0 0.00 0.00 0.00 89 1008.3
20260507154644 80 192 0.0 0.0 0.00 0.00 0.00 89 1008.5
20260507154142 80 192 0.0 0.0 0.00 0.00 0.00 88 1008.5
20260507153638 80 192 0.0 0.0 0.00 0.00 0.00 89 1008.4
20260507153135 80 192 0.0 0.0 0.00 0.00 0.00 88 1008.3
20260507152631 80 192 0.0 0.0 0.00 0.00 0.00 89 1008.4
20260507152127 80 192 0.0 0.0 0.00 0.00 0.00 88 1008.2
20260507151623 80 192 0.0 0.0 0.00 0.00 0.00 88 1008.0
20260507151121 80 192 0.0 0.0 0.00 0.00 0.00 88 1008.1
20260507150618 81 192 0.0 0.0 0.00 0.00 0.00 88 1008.5
20260507150115 81 192 0.0 0.0 0.00 0.00 0.00 88 1008.3
20260507145615 81 192 0.0 0.0 0.00 0.00 0.00 88 1008.5
20260507145113 81 192 0.0 0.0 0.00 0.00 0.00 87 1008.5
20260507144613 81 192 0.0 0.0 0.00 0.00 0.00 87 1008.5
20260507144112 81 192 0.0 0.0 0.00 0.00 0.00 87 1008.5
20260507143608 81 192 0.0 0.0 0.00 0.00 0.00 87 1008.6
20260507143106 81 191 0.0 0.0 0.00 0.00 0.00 87 1008.5
20260507142601 81 191 0.0 0.0 0.00 0.00 0.00 87 1008.6
20260507142058 81 191 0.0 0.0 0.00 0.00 0.00 87 1008.4
20260507141554 81 191 0.0 0.0 0.00 0.00 0.00 88 1008.6
20260507141051 81 192 0.0 0.0 0.00 0.00 0.00 87 1008.4
20260507140548 81 192 0.0 0.0 0.00 0.00 0.00 88 1008.7
20260507140045 81 192 0.0 0.0 0.00 0.00 0.00 87 1008.5
20260507135542 81 192 0.0 0.0 0.00 0.00 0.00 87 1008.5
20260507135039 81 192 0.0 0.0 0.00 0.00 0.00 87 1008.6
20260507134536 81 192 0.0 0.0 0.00 0.00 0.00 86 1008.4
20260507134031 81 192 0.0 0.0 0.00 0.00 0.00 86 1008.1
20260507133528 81 192 0.0 0.0 0.00 0.00 0.00 86 1008.5
20260507133026 81 192 0.0 0.0 0.00 0.00 0.00 86 1008.2
20260507132522 81 191 0.0 0.0 0.00 0.00 0.00 85 1008.3
20260507132019 81 191 0.0 0.0 0.00 0.00 0.00 85 1008.1
20260507131516 81 190 0.0 0.0 0.00 0.00 0.00 85 1008.2
20260507131013 81 190 0.0 0.0 0.00 0.00 0.00 85 1008.4
20260507130510 81 190 0.0 0.0 0.00 0.00 0.00 85 1008.2
20260507130008 81 190 0.0 0.0 0.00 0.00 0.00 85 1008.0
20260507125506 81 190 0.0 0.0 0.00 0.00 0.00 84 1008.0
20260507125003 81 190 0.0 0.0 0.00 0.00 0.00 85 1008.1
20260507124459 81 190 0.0 0.0 0.00 0.00 0.00 85 1007.8
20260507123957 82 190 0.0 0.0 0.00 0.00 0.00 85 1008.1
20260507123455 82 190 0.0 0.0 0.00 0.00 0.00 84 1008.1
20260507122951 82 190 0.0 0.0 0.00 0.00 0.00 84 1008.1
20260507122446 82 190 0.0 0.0 0.00 0.00 0.00 84 1008.0
20260507121943 82 190 0.0 0.0 0.00 0.00 0.00 84 1007.8
20260507121438 82 191 0.0 0.0 0.00 0.00 0.00 84 1007.9
20260507120935 82 191 0.0 0.0 0.00 0.00 0.00 83 1008.0
20260507120431 82 190 0.0 0.0 0.00 0.00 0.00 84 1007.8
20260507115928 82 188 0.0 0.0 0.00 0.00 0.00 83 1007.8
20260507115424 82 188 0.0 0.0 0.00 0.00 0.00 83 1007.7
20260507114920 82 188 0.0 0.0 0.00 0.00 0.00 83 1007.8
20260507114417 82 188 0.0 0.0 0.00 0.00 0.00 83 1007.7
20260507113914 82 188 0.0 0.0 0.00 0.00 0.00 83 1007.6
20260507113411 82 182 0.0 0.0 0.00 0.00 0.00 82 1007.6
20260507112908 82 182 0.0 0.0 0.00 0.00 0.00 82 1007.7
20260507112406 82 179 0.0 0.0 0.00 0.00 0.00 82 1007.8
20260507111904 82 178 0.0 0.0 0.00 0.00 0.00 82 1007.7
20260507111400 82 178 0.0 0.0 0.00 0.00 0.00 81 1007.4
20260507110856 83 177 0.0 0.0 0.00 0.00 0.00 81 1007.4
20260507110352 83 150 0.0 0.0 0.00 0.00 0.00 81 1007.4
20260507105849 83 151 0.0 0.0 0.00 0.00 0.00 81 1007.4
20260507105346 83 140 0.0 0.0 0.00 0.00 0.00 80 1007.2
20260507104842 83 139 0.0 0.0 0.00 0.00 0.00 79 1007.1
20260507104339 83 139 0.0 0.0 0.00 0.00 0.00 79 1007.2
20260507103835 84 210 0.0 0.0 0.00 0.00 0.00 79 1007.4
20260507103332 84 210 0.0 0.0 0.00 0.00 0.00 78 1007.1
20260507102828 84 210 0.0 0.0 0.00 0.00 0.00 79 1007.1
20260507102325 84 203 0.0 0.0 0.00 0.00 0.00 77 1007.2
20260507101822 85 342 0.0 0.0 0.00 0.00 0.00 75 1007.1
20260507101321 84 238 0.0 0.0 0.00 0.00 0.00 78 1007.0
20260507100819 85 257 0.0 0.0 0.00 0.00 0.00 77 1007.0
20260507100317 85 261 0.0 0.0 0.00 0.00 0.00 77 1006.9
20260507095815 85 261 0.0 0.0 0.00 0.00 0.00 76 1007.1
20260507095311 86 262 0.0 0.0 0.00 0.00 0.00 75 1007.1
20260507094808 86 262 0.0 0.0 0.00 0.00 0.00 74 1007.0
20260507094305 86 189 0.0 0.0 0.00 0.00 0.00 75 1006.8
20260507093802 87 189 0.0 0.0 0.00 0.00 0.00 74 1006.9
20260507093300 88 188 0.0 0.0 0.00 0.00 0.00 73 1006.7
20260507092758 88 165 0.0 0.0 0.00 0.00 0.00 70 1006.7
20260507092254 88 165 0.0 0.0 0.00 0.00 0.00 69 1006.6
20260507091750 89 165 0.0 0.0 0.00 0.00 0.00 68 1006.6
20260507091247 89 179 0.0 3.0 0.00 0.00 0.00 68 1006.6
20260507090747 89 136 0.0 2.0 0.00 0.00 0.00 67 1006.4
20260507090244 90 149 0.0 0.0 0.00 0.00 0.00 67 1006.3
20260507085741 91 155 1.0 2.0 0.00 0.00 0.00 65 1006.4
20260507085238 92 156 2.0 3.0 0.00 0.00 0.00 64 1006.3
20260507084735 92 252 0.0 1.0 0.00 0.00 0.00 64 1006.3
20260507084232 92 214 0.0 0.0 0.00 0.00 0.00 64 1006.3
20260507083729 92 135 0.0 0.0 0.00 0.00 0.00 63 1006.5
20260507083226 91 230 1.0 2.0 0.00 0.00 0.00 67 1006.6
20260507082722 92 169 0.0 1.0 0.00 0.00 0.00 64 1006.3
20260507082218 93 140 2.0 2.0 0.00 0.00 0.00 62 1006.4
20260507081715 93 130 1.0 1.0 0.00 0.00 0.00 61 1006.2
20260507081211 93 159 0.0 1.0 0.00 0.00 0.00 61 1006.4
20260507080707 93 243 1.0 2.0 0.00 0.00 0.00 63 1006.2
20260507080204 92 127 2.0 4.0 0.00 0.00 0.00 64 1006.4
20260507075659 91 162 1.0 2.0 0.00 0.00 0.00 65 1006.3
20260507075155 90 134 0.0 2.0 0.00 0.00 0.00 69 1006.5
20260507074652 91 161 1.0 2.0 0.00 0.00 0.00 67 1006.5
20260507074151 91 213 0.0 1.0 0.00 0.00 0.00 69 1006.4
20260507073647 92 242 0.0 1.0 0.00 0.00 0.00 67 1006.6
20260507073143 92 149 0.0 1.0 0.00 0.00 0.00 67 1006.5
20260507072641 92 266 1.0 1.0 0.00 0.00 0.00 68 1006.5
20260507072138 92 154 0.0 1.0 0.00 0.00 0.00 66 1006.7
20260507071636 93 138 0.0 2.0 0.00 0.00 0.00 64 1006.5
20260507071132 92 157 0.0 1.0 0.00 0.00 0.00 65 1006.6
20260507070629 92 150 2.0 2.0 0.00 0.00 0.00 66 1006.5
20260507070126 94 131 1.0 2.0 0.00 0.00 0.00 62 1006.4
20260507065622 93 203 0.0 2.0 0.00 0.00 0.00 64 1006.6
20260507065119 92 248 1.0 1.0 0.00 0.00 0.00 64 1006.5
20260507064617 92 190 1.0 2.0 0.00 0.00 0.00 65 1006.8
20260507064115 94 289 0.0 3.0 0.00 0.00 0.00 65 1006.5
20260507063612 93 272 0.0 2.0 0.00 0.00 0.00 66 1006.7
20260507063109 93 183 0.0 1.0 0.00 0.00 0.00 65 1006.6
20260507062606 91 185 0.0 1.0 0.00 0.00 0.00 68 1006.8
20260507062104 93 189 1.0 3.0 0.00 0.00 0.00 66 1006.9
20260507061601 94 137 3.0 4.0 0.00 0.00 0.00 62 1006.9
20260507061059 92 167 0.0 3.0 0.00 0.00 0.00 66 1006.9
20260507060557 93 176 2.0 3.0 0.00 0.00 0.00 66 1007.0
20260507060053 92 129 2.0 3.0 0.00 0.00 0.00 67 1007.1
20260507055548 92 116 1.0 2.0 0.00 0.00 0.00 67 1007.1
20260507055045 92 201 0.0 2.0 0.00 0.00 0.00 66 1007.2
20260507054541 91 161 0.0 1.0 0.00 0.00 0.00 68 1007.4
20260507054038 93 101 1.0 3.0 0.00 0.00 0.00 65 1007.2
20260507053536 92 192 0.0 0.0 0.00 0.00 0.00 66 1007.1
20260507053034 93 123 0.0 1.0 0.00 0.00 0.00 66 1007.4
20260507052531 94 134 1.0 2.0 0.00 0.00 0.00 63 1007.4
20260507052028 94 154 1.0 3.0 0.00 0.00 0.00 62 1007.3
20260507051526 92 270 1.0 2.0 0.00 0.00 0.00 65 1007.8
20260507051022 91 229 0.0 3.0 0.00 0.00 0.00 67 1007.6
20260507050518 91 238 2.0 4.0 0.00 0.00 0.00 67 1007.9
20260507042103 93 158 0.0 3.0 0.00 0.00 0.00 63 1008.5
20260507041600 93 158 0.0 3.0 0.00 0.00 0.00 63 1008.5
20260507041058 94 239 1.0 3.0 0.00 0.00 0.00 64 1008.6
20260507040554 94 155 1.0 3.0 0.00 0.00 0.00 63 1008.8
20260507040050 94 264 1.0 2.0 0.00 0.00 0.00 63 1008.7
20260507035546 94 216 0.0 2.0 0.00 0.00 0.00 63 1008.9
20260507035043 95 209 2.0 2.0 0.00 0.00 0.00 62 1008.9
20260507034540 95 145 1.0 2.0 0.00 0.00 0.00 61 1009.0
20260507034038 94 165 0.0 3.0 0.00 0.00 0.00 64 1008.8
20260507033535 93 157 2.0 4.0 0.00 0.00 0.00 63 1008.9
20260507033033 93 267 0.0 2.0 0.00 0.00 0.00 64 1008.9
20260507032530 93 155 1.0 2.0 0.00 0.00 0.00 65 1009.2
20260507032026 94 135 2.0 3.0 0.00 0.00 0.00 64 1009.1
20260507031522 94 247 1.0 2.0 0.00 0.00 0.00 65 1009.2
20260507031019 93 153 0.0 2.0 0.00 0.00 0.00 65 1009.4
20260507030516 93 158 1.0 3.0 0.00 0.00 0.00 65 1009.3
20260507030014 92 232 1.0 1.0 0.00 0.00 0.00 67 1009.3
20260507025510 92 230 0.0 3.0 0.00 0.00 0.00 68 1009.4
20260507025008 92 171 2.0 2.0 0.00 0.00 0.00 66 1009.2
20260507024506 91 243 2.0 3.0 0.00 0.00 0.00 68 1009.1
20260507024001 92 133 2.0 4.0 0.00 0.00 0.00 66 1009.2
20260507023458 92 221 1.0 3.0 0.00 0.00 0.00 67 1009.0
20260507022955 92 250 2.0 3.0 0.00 0.00 0.00 67 1009.1
20260507022452 92 166 0.0 1.0 0.00 0.00 0.00 65 1009.2
20260507021948 91 163 1.0 3.0 0.00 0.00 0.00 66 1009.4
20260507021443 91 143 3.0 3.0 0.00 0.00 0.00 66 1009.6
20260507020941 91 167 0.0 4.0 0.00 0.00 0.00 67 1009.3
20260507020438 91 150 2.0 4.0 0.00 0.00 0.00 66 1009.6
20260507015935 91 188 0.0 3.0 0.00 0.00 0.00 67 1009.4
20260507015433 91 214 1.0 4.0 0.00 0.00 0.00 67 1009.6
20260507014930 91 207 0.0 3.0 0.00 0.00 0.00 67 1009.6
20260507014426 92 154 0.0 2.0 0.00 0.00 0.00 65 1009.6
20260507013922 91 149 2.0 3.0 0.00 0.00 0.00 66 1009.8
20260507013419 91 158 2.0 3.0 0.00 0.00 0.00 67 1009.8
20260507012917 90 220 1.0 2.0 0.00 0.00 0.00 69 1009.7
20260507012413 90 144 1.0 2.0 0.00 0.00 0.00 70 1009.8
20260507011905 90 151 2.0 4.0 0.00 0.00 0.00 70 1010.0
20260507011402 89 136 0.0 0.0 0.00 0.00 0.00 71 1009.9
20260507010901 88 129 1.0 2.0 0.00 0.00 0.00 72 1009.8
20260507010356 89 157 1.0 3.0 0.00 0.00 0.00 71 1009.8
20260507005854 89 224 0.0 3.0 0.00 0.00 0.00 72 1009.8
20260507005351 88 197 1.0 2.0 0.00 0.00 0.00 73 1009.7
20260507004848 89 138 1.0 2.0 0.00 0.00 0.00 73 1009.8
20260507004345 88 134 1.0 4.0 0.00 0.00 0.00 75 1009.8
20260507003842 88 160 2.0 3.0 0.00 0.00 0.00 74 1009.6
20260507003337 88 143 1.0 2.0 0.00 0.00 0.00 74 1009.6
20260507002832 88 133 2.0 3.0 0.00 0.00 0.00 75 1009.9
20260507002328 87 131 2.0 2.0 0.00 0.00 0.00 75 1009.7
20260507001826 87 191 0.0 1.0 0.00 0.00 0.00 76 1009.8
20260507001323 87 157 0.0 2.0 0.00 0.00 0.00 77 1009.8
20260507000819 87 207 0.0 0.0 0.00 0.00 0.00 76 1009.8
20260507000315 87 168 1.0 1.0 0.00 0.00 0.00 76 1009.8
20260506235812 86 234 0.0 1.0 0.00 0.00 0.00 77 1009.8
20260506235308 85 188 0.0 1.0 0.00 0.00 0.00 80 1009.8
20260506234804 84 134 1.0 1.0 0.00 0.00 0.00 81 1009.8
20260506234302 83 168 1.0 2.0 0.00 0.00 0.00 82 1009.9
20260506233800 80 206 0.0 0.0 0.00 0.00 0.00 89 1009.8
20260506233256 79 206 0.0 0.0 0.00 0.00 0.00 91 1009.8
20260506232753 79 206 0.0 0.0 0.00 0.00 0.00 91 1010.0
20260506232253 79 206 0.0 0.0 0.00 0.00 0.00 92 1009.7
20260506231750 79 206 0.0 0.0 0.00 0.00 0.00 92 1009.8
20260506231249 79 206 0.0 0.0 0.00 0.00 0.00 92 1009.5
20260506230745 78 206 0.0 0.0 0.00 0.00 0.00 92 1009.6
20260506230242 78 206 0.0 0.0 0.00 0.00 0.00 93 1009.4
20260506225739 78 206 0.0 0.0 0.00 0.00 0.00 93 1009.5
20260506225236 78 206 0.0 0.0 0.00 0.00 0.00 93 1009.4
20260506224732 78 206 0.0 0.0 0.00 0.00 0.00 93 1009.2
20260506224230 78 206 0.0 0.0 0.00 0.00 0.00 93 1009.0
20260506223726 78 206 0.0 0.0 0.00 0.00 0.00 93 1009.2
20260506223221 78 206 0.0 0.0 0.00 0.00 0.00 93 1009.2
20260506222719 78 206 0.0 0.0 0.00 0.00 0.00 93 1009.2
20260506222214 78 206 0.0 0.0 0.00 0.00 0.00 93 1009.1
20260506221712 78 206 0.0 0.0 0.00 0.00 0.00 93 1009.2
20260506221210 78 206 0.0 0.0 0.00 0.00 0.00 93 1009.0
20260506220707 78 206 0.0 0.0 0.00 0.00 0.00 94 1009.0
20260506220202 78 206 0.0 0.0 0.00 0.00 0.00 94 1008.7
20260506215659 77 206 0.0 0.0 0.00 0.00 0.00 94 1008.8
20260506215154 77 206 0.0 0.0 0.00 0.00 0.00 94 1008.7
20260506214651 77 206 0.0 0.0 0.00 0.00 0.00 94 1008.8
20260506214149 77 206 0.0 0.0 0.00 0.00 0.00 94 1008.6
20260506213647 77 206 0.0 0.0 0.00 0.00 0.00 94 1008.5
20260506213144 77 206 0.0 0.0 0.00 0.00 0.00 94 1008.6
20260506212641 77 206 0.0 0.0 0.00 0.00 0.00 94 1008.5
20260506212135 77 206 0.0 0.0 0.00 0.00 0.00 94 1008.6
20260506211632 77 206 0.0 0.0 0.00 0.00 0.00 94 1008.5
20260506211129 77 206 0.0 0.0 0.00 0.00 0.00 94 1008.4
20260506210627 77 206 0.0 0.0 0.00 0.00 0.00 94 1008.3
20260506210123 78 206 0.0 0.0 0.00 0.00 0.00 94 1008.5
20260506205620 78 206 0.0 0.0 0.00 0.00 0.00 94 1008.3
20260506205120 78 206 0.0 0.0 0.00 0.00 0.00 94 1008.5
20260506204618 78 206 0.0 0.0 0.00 0.00 0.00 94 1008.3
20260506204115 78 206 0.0 0.0 0.00 0.00 0.00 94 1008.3
20260506203613 78 206 0.0 0.0 0.00 0.00 0.00 94 1008.4
20260506203109 78 206 0.0 0.0 0.00 0.00 0.00 94 1008.1
20260506202607 78 206 0.0 0.0 0.00 0.00 0.00 94 1008.2
20260506202103 78 206 0.0 0.0 0.00 0.00 0.00 94 1008.1
20260506201601 78 205 0.0 0.0 0.00 0.00 0.00 94 1008.1
20260506201057 78 205 0.0 0.0 0.00 0.00 0.00 94 1008.0
20260506200554 78 206 0.0 0.0 0.00 0.00 0.00 94 1008.1
20260506200050 78 206 0.0 0.0 0.00 0.00 0.00 94 1008.0
20260506195547 78 205 0.0 0.0 0.00 0.00 0.00 94 1007.8
20260506195043 78 206 0.0 0.0 0.00 0.00 0.00 94 1008.0
20260506194541 78 206 0.0 0.0 0.00 0.00 0.00 94 1007.9
20260506194037 78 206 0.0 0.0 0.00 0.00 0.00 94 1008.0
20260506193535 78 206 0.0 0.0 0.00 0.00 0.00 94 1007.8
20260506193032 78 206 0.0 0.0 0.00 0.00 0.00 94 1007.8
20260506192529 78 206 0.0 0.0 0.00 0.00 0.00 94 1007.9
20260506192024 78 206 0.0 0.0 0.00 0.00 0.00 94 1007.8
20260506191521 78 206 0.0 0.0 0.00 0.00 0.00 93 1007.6
20260506191017 78 206 0.0 0.0 0.00 0.00 0.00 93 1007.7
20260506190515 78 206 0.0 0.0 0.00 0.00 0.00 93 1007.9
20260506190012 78 206 0.0 0.0 0.00 0.00 0.00 93 1007.9
20260506185509 78 206 0.0 0.0 0.00 0.00 0.00 93 1007.8
20260506185005 78 206 0.0 0.0 0.00 0.00 0.00 93 1007.8
20260506184503 78 206 0.0 0.0 0.00 0.00 0.00 93 1007.8
20260506184000 78 206 0.0 0.0 0.00 0.00 0.00 92 1007.8
20260506183455 78 206 0.0 0.0 0.00 0.00 0.00 92 1007.9
20260506182953 78 206 0.0 0.0 0.00 0.00 0.00 91 1007.7
20260506182450 78 206 0.0 0.0 0.00 0.00 0.00 91 1007.8
20260506181947 78 206 0.0 0.0 0.00 0.00 0.00 90 1007.9
20260506181445 78 206 0.0 0.0 0.00 0.00 0.00 90 1007.7
20260506180941 78 206 0.0 0.0 0.00 0.00 0.00 90 1007.8
20260506180438 78 206 0.0 0.0 0.00 0.00 0.00 90 1007.7
20260506175935 78 206 0.0 0.0 0.00 0.00 0.00 90 1007.8
20260506175431 78 206 0.0 0.0 0.00 0.00 0.00 90 1007.9
20260506174928 78 206 0.0 0.0 0.00 0.00 0.00 89 1008.0
20260506174426 78 206 0.0 0.0 0.00 0.00 0.00 89 1007.9
20260506173923 78 206 0.0 0.0 0.00 0.00 0.00 89 1008.0
20260506173419 78 206 0.0 0.0 0.00 0.00 0.00 89 1008.2
20260506172917 78 206 0.0 0.0 0.00 0.00 0.00 89 1008.0
20260506172413 78 206 0.0 0.0 0.00 0.00 0.00 89 1008.1
20260506171910 78 206 0.0 0.0 0.00 0.00 0.00 89 1008.2
20260506171408 78 206 0.0 0.0 0.00 0.00 0.00 89 1008.3
20260506170906 78 206 0.0 0.0 0.00 0.00 0.00 89 1008.1
20260506170402 79 206 0.0 0.0 0.00 0.00 0.00 89 1008.3
20260506165900 78 206 0.0 0.0 0.00 0.00 0.00 90 1008.5
20260506165358 78 206 0.0 0.0 0.00 0.00 0.00 90 1008.4
20260506164854 79 206 0.0 0.0 0.00 0.00 0.00 90 1008.5
20260506164351 79 206 0.0 0.0 0.00 0.00 0.00 91 1008.6
20260506163849 79 206 0.0 0.0 0.00 0.00 0.00 91 1008.7
20260506163343 79 206 0.0 0.0 0.00 0.00 0.00 91 1008.6
20260506162838 79 206 0.0 0.0 0.00 0.00 0.00 91 1008.7
20260506162337 79 206 0.0 0.0 0.00 0.00 0.00 91 1008.9
20260506161834 79 206 0.0 0.0 0.00 0.00 0.00 91 1008.8
20260506161331 79 206 0.0 0.0 0.00 0.00 0.00 91 1009.0
20260506160829 79 206 0.0 0.0 0.00 0.00 0.00 91 1008.7
20260506160325 79 206 0.0 0.0 0.00 0.00 0.00 91 1008.8